Regional Weather Roundup
Issued by NWS

Home | Current Version | Previous Version | Graphics & Text | Print | Product List | Glossary On
Versions: 1 2 3 4 5 6 7 8 9 10 11 12 13 14 15 16 17 18 19 20 21 22 23 24 25 26 27 28 29 30 31 32 33 34 35 36 37 38 39 40 41 42 43 44 45 46 47 48 49 50
000
ASUS43 KLOT 042008
RWRIL

ILLINOIS REGIONAL WEATHER ROUNDUP
NATIONAL WEATHER SERVICE CHICAGO/ROMEOVILLE IL
300 PM CDT MON MAY 04 2015

NOTE: "FAIR" INDICATES FEW OR NO CLOUDS BELOW 12,000 FEET WITH NO
SIGNIFICANT WEATHER AND/OR OBSTRUCTIONS TO VISIBILITY.

* THESE STATIONS ARE NOT UNDER NWS QUALITY CONTROL. THEY ALSO MAY NOT
  REPORT WEATHER SUCH AS PRECIPITATION OR FOG.

ILZ001-002-007-009-015-016-024-042100-
NORTHWEST ILLINOIS

CITY           SKY/WX    TMP DP  RH WIND       PRES   REMARKS
MOLINE         CLOUDY    75  61  61 E10       30.08F
STERLING*      PTSUNNY   73  63  68 E7        30.12F
SAVANNA*       CLOUDY    74  57  54 W5        30.12S
$$

ILZ003-004-008-010-011-017-018-042100-
NORTH CENTRAL ILLINOIS

CITY           SKY/WX    TMP DP  RH WIND       PRES   REMARKS
ROCKFORD       PTSUNNY   73  56  54 CALM      30.13F
FREEPORT*      PTSUNNY   71  57  61 CALM      30.14S
ROCHELLE*      PTSUNNY   70  59  69 N7        30.14S
DE KALB*       CLOUDY    67  58  71 CALM      30.13F
PERU*          PTSUNNY   75  60  60 N3        30.12S
$$

ILZ005-006-012>014-019>023-042100-
NORTHEAST ILLINOIS

CITY           SKY/WX    TMP DP  RH WIND       PRES   REMARKS
CHICAGO-OHARE  CLOUDY    72  56  57 E13       30.12R
CHICAGO-MIDWAY CLOUDY    70  57  63 E14       30.13R
AURORA         CLOUDY    68  58  70 NW5       30.13S
LANSING*       CLOUDY    71  58  62 W6        30.13S
JOLIET*        CLOUDY    74  60  63 CALM      30.13R
WAUKEGAN       PTSUNNY   64  54  69 NE10      30.14R
DUPAGE AIRPORT PTSUNNY   70  59  68 SW3       30.12S
KANKAKEE*      CLOUDY    69  63  80 SW3       30.14S
WHEELING       CLOUDY    69  56  62 NE9       30.14R
MORRIS*        CLOUDY    74  59  59 CALM      30.11S
ROMEOVILLE*    PTSUNNY   73  56  56 N7        30.13S
NORTHERLY ISL    N/A     59  53  80 N5          N/A
$$

LMZ740>746-042100-
SOUTHERN LAKE MICHIGAN

STATION/POSITION SKY/WX   TEMP    WIND        PRES    VSBY  WAVE
                          AIR SEA DIR/SP/G                  HT/PER
                          (F)     (DEG/KT/KT) (MB)    (MI)  (FT/S)
HARRISON CRIB              59      80/ 14/ 15   N/A
BURNHAM HARBOR             58     360/  3/  7   N/A
CALUMET HARBOR             60      20/  5/  9   N/A
BURNS HARBOR               63      40/  4/  6 1020.7R
MICHIGAN CITY              55     360/  9/ 12   N/A
MICHIGAN CITY 6N           52 50   60/  8/ 12   N/A           1
ST. JOSEPH                 50 49  350/  6/  6   N/A           1
$$

ILZ025>027-034>036-040-047-049-050-058-095>099-042100-
WEST-CENTRAL ILLINOIS

CITY           SKY/WX    TMP DP  RH WIND       PRES   REMARKS
QUINCY         MOSUNNY   80  59  48 S8        30.05F HX  81
GALESBURG*     MOSUNNY   77  63  62 S3        30.09F
MACOMB*        LGT RAIN  70  64  81 NE6       30.10S
JACKSONVILLE*  PTSUNNY   83  57  41 S7        30.08F HX  83
PITTSFIELD*    PTSUNNY   81  59  46 S9        30.08F HX  82
$$

ILZ028>032-037-038-041>044-048-051>054-059>061-042100-
CENTRAL ILLINOIS

CITY           SKY/WX    TMP DP  RH WIND       PRES   REMARKS
PONTIAC        CLOUDY    71  66  83 N3        30.14S
BLOOMINGTON    CLOUDY    74  66  75 N8        30.13F
DECATUR        CLOUDY    79  55  43 SW15      30.11F
PEORIA         PTSUNNY   75  61  61 CALM      30.11S
LACON*         PTSUNNY   72  61  67 CALM      30.11S
LINCOLN*       CLOUDY    77  61  58 CALM      30.08S
SPRINGFIELD    CLOUDY    83  55  38 SW10G17   30.09F HX  82
TAYLORVILLE    CLOUDY    81  54  39 S16G23    30.10F HX  80
$$

ILZ033-039-045-046-055>057-062-063-042100-
EAST-CENTRAL ILLINOIS

CITY           SKY/WX    TMP DP  RH WIND       PRES   REMARKS
CHAMPAIGN      CLOUDY    82  56  40 SW17G24   30.11S HX  82
DANVILLE*      CLOUDY    77  62  58 SW12G18   30.09F
RANTOUL*       HVY RAIN  71  65  79 N9G22     30.11F
MATTOON        PTSUNNY   78  57  48 SW12G17   30.12F
PARIS*         CLOUDY    81  59  46 SW16      30.14S HX  81
$$

ILZ079-100>102-042100-
SOUTHWEST ILLINOIS

CITY           SKY/WX    TMP DP  RH WIND       PRES   REMARKS
BELLEVILLE     FAIR      84  57  39 VRB2      30.08F HX  84
CAHOKIA*       MOSUNNY   85  56  37 S8        30.08F HX  84
SPARTA*        PTSUNNY   80  61  53 S12       30.13S HX  81
$$

ILZ064>066-069>071-074>076-080>082-084>086-088>090-092>094-042100-
SOUTH-CENTRAL ILLINOIS

CITY           SKY/WX    TMP DP  RH WIND       PRES   REMARKS
CARBONDALE     MOSUNNY   83  56  39 S16       30.12F HX  82
CAIRO*         MOSUNNY   84  56  38 SW9G22    30.15S HX  83
EFFINGHAM*     PTSUNNY   82  50  32 S14G20    30.14S HX  81
MARION         PTSUNNY   82  59  44 S16       30.14F HX  82
MT. VERNON     PTSUNNY  N/A N/A N/A S15       30.14S
CENTRALIA*     PTSUNNY   86  53  31 SW18      30.12F HX  84
SALEM*         PTSUNNY   85  53  33 S15G21    30.13S HX  83
METROPOLIS*    MOSUNNY   83  55  37 SW13      30.15F HX  82
$$

ILZ067-068-072-073-078-083-087-091-042100-
SOUTHEAST ILLINOIS

CITY           SKY/WX    TMP DP  RH WIND       PRES   REMARKS
LAWRENCEVILLE  PTSUNNY   83  57  41 SW16      30.13F HX  82
FLORA*         PTSUNNY   83  55  38 SW13G20   30.13F HX  82
FAIRFIELD*     MOSUNNY   82  55  39 S13G24    30.13S HX  81
HARRISBURG*    MOSUNNY   84  52  33 SW18      30.15F HX  82
ROBINSON*      PTSUNNY   83  54  36 SW12      30.14S HX  82
CARMI*         PTSUNNY   84  48  28 SW16G22   30.13F HX  82
$$

ABBREVIATIONS USED IN REMARKS
   TC - TEMPERATURE IN CELSIUS
  WCI - WIND CHILL INDEX
   HX - HEAT INDEX
  VSB - VISIBILITY
$$



USA.gov is the U.S. government's official web portal to all federal, state and local government web resources and services.